Showing default

QIANFAN-183, 69401

Orbit data source: Space-Track

QIANFAN-183, 69401 is a Chinese payload satellite in LEO that was launched on Fri, 05 Jun 2026 UTC via a CHANG ZHENG 8 launch vehicle from the Wenchang Satellite Launch Center (WSC). Payload-class satellites include a variety of spacecraft equipped with specific instruments for various scientific and technological missions. These include communications satellites like Starlink; space stations such as the ISS; scientific satellites like the Hubble; Earth observation satellites from companies like Planet Labs, Umbra, and HawkEye 360; GPS; miniature CubeSats for education and research; and military/defense satellites.

Loading next visibility...
Identifier
69401, 2026-125A
Orbit
LEO
Country
Flag of CNCN / PRC
Related business
Manufacturer
SECM?
Mission
Operational spacecraft
Bus & Motor
QIANFAN, Unknown motor
Mass
267 kg wet, ~267 kg dry
Launch date (UTC)
2026-06-05 (2 weeks ago)
Launch vehicle
CHANG ZHENG 8
Launch site
Wenchang Satellite Launch Center (WSC)
Object type
Payload
Rocket body
Debris
Shape & HBR
Unknown
Radar Cross Section
Large (>1 m²)

Expand to show TLE details & history
Last TLE update: 15 hours ago

TLE from 15 hours ago
0 QIANFAN-183
1 69401U 26125A   26171.23567771 -.02022735  00000-0 -11695+1 0  9996
2 69401  88.9952 280.0998 0013305 162.8418 197.3221 14.13053743  2133
Epoch: 2026-06-20T05:39Z
TLE epoch observation values (Epoch: 2026-06-20T05:39:22.554Z)
Latitude
0.00003°
Longitude
-73.19738°
Altitude
861.166 km
Speed
7.417 km/s
True Right ascension
18h 40m 23s
True Declination
0° 00' 00"
Sunlit
Object was in full shadow at epoch
Visualization orbit readout
Latitude
Unknown
Longitude
Unknown
Altitude
Unknown
Speed
Unknown
Apparent Right ascension
Unknown
Apparent Declination
Unknown
Sunlit
N/A
Visualization observer readout
Local Sidereal Time
07:12:56
Azimuth
Unknown
Elevation
Unknown
Doppler factor
Unknown
Orbital elements
Apogee altitude
855.513 km
Perigee altitude
836.29 km
Semi-major axis
7,224.039 km
Eccentricity
0.00133
Inclination
88.9952°
RAAN
280.0998°
Arg. of periapsis
162.8418°
True anomaly
197.27678°
Mean anomaly
197.3221°
Eccentric anomaly
197.29943°
Mean motion
3.53487 °/min
Orbital period
101.84 mins
BSTAR
-1.1695
Loading maneuver chart data...
Computing Atmospheric mass density...
Loading historical data...
Loading historical data...
Loading historical data...
Loading historical data...
Loading historical data...
Loading historical data...
Loading historical data...

Documentation

Showing up to 5 results
|